Location: Kellogg
(38.0159°N, 90.0546°W)
Time: 21:35:23
(UTC+00:00)

Transit 4A - Pass Details

Date: 17 September 2024
Orbit: 864 x 978 km, 66.8° (Epoch: 12 October)

Event Time Altitude Azimuth Distance (km) Brightness Sun altitude
Rises 06:40:37 0° 160° (SSE) 3,433 - -48.6°
Reaches altitude 10° 06:44:01 10° 140° (SE) 2,510 - -48.4°
Maximum altitude 06:47:26 16° 103° (ESE) 2,117 - -48.1°
Drops below altitude 10° 06:50:54 10° 67° (ENE) 2,551 - -47.9°
Exits shadow 06:52:01 - 59° (ENE) 2,827 10.8 -47.8°
Sets 06:54:22 0° 47° (NE) 3,516 11.5 -47.6°
